RH
23 22 24 23 23 21 19 18 18 17 18 20 16 14 14 13 12 12 12 11 10 10 11 12 13 14 14 13 15 17 18 16 12 14 16 18 18 21 24 25 26 27 29 29
23 22 20 21 20 20 19 20 17 16 15 17 15 13 12 11 10 11 10 9 9 10 11 12 12 13 14 15 16 18 18 14 15 16 19 23 26 24 27 27 27 27 28 28
20 19 19 17 18 19 19 18 16 15 14 17 17 17 13 11 12 11 11 10 9 9 10 12 13 14 17 19 19 19 18 16 18 20 22 23 25 27 30 32 30 29 30 30
16 18 18 19 18 17 16 14 14 16 19 19 21 24 14 11 11 15 15 12 13 14 13 13 14 16 20 21 20 20 17 19 22 25 27 31 30 33 34 38 37 38 37 36
17 18 20 21 17 19 17 21 21 21 22 25 21 31 16 16 17 18 20 21 20 18 17 18 21 22 23 23 22 21 21 23 26 30 33 36 37 39 42 42 40 40 40 40
20 22 23 20 22 22 21 24 23 24 30 39 24 28 21 18 20 24 24 25 25 23 22 22 24 26 27 24 24 23 26 29 35 37 41 42 42 43 42 42 39 39 41 42
22 21 24 26 24 25 29 29 35 33 51 44 27 31 25 26 26 34 37 32 30 30 28 29 32 30 31 33 35 35 36 41 45 46 50 51 51 48 45 44 42 42 44 46
31 30 29 32 34 34 36 36 43 45 38 33 25 36 25 27 41 41 45 50 46 42 37 36 37 41 44 43 45 46 48 51 55 58 59 59 57 51 49 49 45 45 48 50
32 23 30 28 30 32 25 37 45 51 45 51 33 26 27 48 65 59 54 56 57 53 53 53 53 56 56 60 60 61 64 66 67 67 64 62 62 60 56 57 50 48 52 55
39 31 27 30 27 28 33 38 41 39 60 53 40 37 37 62 77 87 82 69 64 61 59 61 66 65 64 61 63 66 69 71 74 72 68 65 68 69 65 61 56 55 55 61
32 32 24 26 25 32 30 32 39 48 45 56 58 46 73 83 79 84 87 90 87 76 70 76 78 81 81 80 78 77 75 73 75 69 65 61 59 66 68 64 65 62 63 65
29 28 24 19 17 22 32 40 40 50 44 47 67 58 71 79 78 86 91 94 93 94 92 83 76 84 93 91 86 84 76 72 71 69 62 58 61 66 70 71 67 66 65 67
24 19 21 13 25 32 37 37 47 52 57 64 69 56 56 76 77 78 73 78 87 91 95 89 89 88 85 91 88 88 82 74 78 73 62 58 59 67 78 77 79 72 69 71
21 25 28 30 26 27 30 34 40 47 60 63 58 58 60 59 62 64 81 86 84 86 92 95 97 97 92 90 88 87 79 82 83 69 64 62 69 69 76 82 86 76 73 74
24 28 30 33 31 32 37 41 48 58 58 69 67 61 77 77 76 75 69 82 93 97 94 93 96 96 97 95 97 82 82 89 77 73 68 76 77 79 83 84 84 80 77 78
32 34 41 41 39 40 40 51 53 67 65 72 78 77 85 87 85 81 81 80 82 92 95 93 90 94 95 97 76 76 89 78 74 70 70 85 89 85 85 84 86 83 81 82
39 42 49 50 42 46 45 87 85 72 71 80 80 75 80 78 77 81 78 88 78 84 90 91 90 89 88 86 85 93 85 82 78 72 81 93 93 92 89 88 89 87 87 88
45 51 56 61 55 68 80 73 73 69 68 72 75 70 73 81 70 72 73 87 78 73 82 87 86 85 82 89 92 89 82 84 80 80 94 96 94 93 95 98 97 92 93 92
48 55 59 63 61 58 91 86 82 73 64 74 79 80 76 66 60 70 75 75 71 73 75 78 78 77 80 80 90 88 85 78 81 87 97 96 95 99 98 99 98 97 96 94
51 54 65 65 71 69 87 83 74 76 82 84 87 82 78 74 70 55 66 67 67 71 72 70 72 70 72 77 83 85 78 82 85 94 98 98 96 98 99 98 98 98 98 96
61 66 72 70 71 69 79 75 77 89 87 87 87 87 86 83 84 70 63 63 64 65 67 69 69 65 69 71 80 78 82 90 97 97 98 97 96 93 98 98 99 98 98 98
59 73 65 73 73 74 79 73 82 86 85 87 87 89 87 88 86 83 75 63 59 58 60 68 68 59 63 61 70 78 88 97 97 98 98 97 93 92 91 97 98 98 98 98
71 77 77 76 71 75 78 81 87 87 88 89 91 92 93 90 88 86 79 73 63 58 57 64 66 59 57 57 69 76 92 96 97 98 98 98 94 91 92 93 98 99 98 98
70 76 77 75 79 77 79 86 85 89 91 94 96 97 96 92 90 89 88 82 73 63 57 60 66 63 58 60 65 81 96 97 97 97 98 98 99 94 91 91 93 98 98 98
72 77 83 81 76 79 85 86 87 89 93 94 96 97 97 95 95 97 98 97 86 71 61 60 61 66 60 61 69 90 97 96 97 98 98 98 99 97 91 89 90 90 93 95
84 90 84 81 83 87 86 88 89 92 93 93 95 95 96 98 99 99 97 99 97 78 66 61 59 67 62 66 78 91 96 96 97 97 98 98 98 99 98 93 90 89 89 88